This demonstration page uses our WeatherBlox Daily Observations layout. Learn more.

Left ArrowRight Arrow

Hourly Observations for June 27, 2017

Temp ( °F °C ) Dew Point ( °F °C ) Humidity (%) Winds ( mph kmh ) Pressure ( in mb ) Visibility ( mi km ) Precip ( " mm )
12:51 am 00:51 Clear 84 28.9 48 8.9 29 29 ESE 8 13 29.79 1009 10 16 N/A
1:51 am 01:51 Clear 83 28.3 47 8.3 28 28 E 9 15 29.78 1008 10 16 N/A
2:51 am 02:51 Clear 81 27.2 47 8.3 30 30 E 8 13 29.78 1009 10 16 N/A
3:51 am 03:51 Clear 78 25.6 48 8.9 35 35 E 9 15 29.78 1008 10 16 N/A
4:51 am 04:51 Clear 76 24.4 48 8.9 37 37 ESE 8 13 29.80 1009 10 16 N/A
5:51 am 05:51 Sunny 76 24.4 49 9.4 39 39 E 7 11 29.82 1010 10 16 N/A
6:51 am 06:51 Sunny 82 27.8 50 10 33 33 ESE 7 11 29.82 1010 10 16 N/A
7:51 am 07:51 Sunny 87 30.6 51 10.6 29 29 ESE 8 13 29.84 1010 10 16 N/A
8:51 am 08:51 Sunny 89 31.7 51 10.6 27 27 S 8 13 29.84 1010 10 16 N/A
9:51 am 09:51 Sunny 93 33.9 52 11.1 25 25 SSE 9 15 29.82 1010 10 16 N/A
10:51 am 10:51 Sunny 94 34.4 51 10.6 23 23 VRB 3 6 29.80 1009 10 16 N/A
11:51 am 11:51 Sunny 98 36.7 45 7.2 16 16 SSW 10 17 29.77 1008 10 16 N/A
12:51 pm 12:51 Sunny 101 38.3 39 3.9 12 12 W 10 17 29.73 1007 10 16 N/A
1:51 pm 13:51 Sunny 102 38.9 40 4.4 12 12 WSW 9 15 29.70 1006 10 16 N/A
2:51 pm 14:51 Sunny 105 40.6 35 1.7 9 9 WNW 15 24 29.66 1005 10 16 N/A
3:51 pm 15:51 Sunny 106 41.1 27 -2.8 6 6 WNW 25 41 29.63 1003 10 16 N/A
4:51 pm 16:51 Sunny 104 40 27 -2.8 7 7 WNW 23 37 29.62 1003 10 16 N/A
5:51 pm 17:51 Sunny 103 39.4 26 -3.3 6 6 NW 16 26 29.61 1003 10 16 N/A
6:51 pm 18:51 Sunny 99 37.2 24 -4.4 7 7 WNW 18 30 29.62 1003 10 16 N/A
7:51 pm 19:51 Clear 94 34.4 21 -6.1 7 7 WNW 14 22 29.63 1003 10 16 N/A
8:51 pm 20:51 Clear 88 31.1 17 -8.3 7 7 NW 9 15 29.67 1005 10 16 N/A
9:51 pm 21:51 Clear 84 28.9 21 -6.1 10 10 WNW 8 13 29.69 1005 10 16 N/A
10:51 pm 22:51 Clear with Light Rain 81 27.2 21 -6.1 11 11 NNW 12 19 29.71 1006 10 16 N/A
11:51 pm 23:51 Clear 80 26.7 23 -5 12 12 NW 10 17 29.70 1006 10 16 N/A

Powered by AerisWeather